TimeEDT,TemperatureF,Dew PointF,Humidity,Sea Level PressureIn,VisibilityMPH,Wind Direction,Wind SpeedMPH,Gust SpeedMPH,PrecipitationIn,Events,Conditions,WindDirDegrees,DateUTC
12:54 AM,52.0,46.9,83,30.10,9.0,NNW,6.9,-,N/A,,Clear,330,2007-11-02 04:54:00
1:54 AM,52.0,46.9,83,30.10,9.0,North,4.6,-,N/A,,Clear,360,2007-11-02 05:54:00
2:54 AM,51.1,46.9,86,30.10,8.0,North,6.9,-,N/A,,Clear,360,2007-11-02 06:54:00
3:54 AM,48.0,45.0,89,30.11,6.0,North,4.6,-,N/A,,Clear,350,2007-11-02 07:54:00
4:54 AM,48.9,45.0,86,30.12,7.0,Variable,5.8,-,N/A,,Overcast,0,2007-11-02 08:54:00
5:07 AM,48.2,44.6,87,30.16,8.0,Variable,5.8,-,N/A,,Overcast,0,2007-11-02 09:07:00
5:54 AM,50.0,37.0,61,30.13,10.0,Variable,6.9,-,N/A,,Overcast,0,2007-11-02 09:54:00
6:12 AM,50.0,33.8,54,30.17,10.0,Calm,Calm,-,N/A,,Overcast,0,2007-11-02 10:12:00
6:54 AM,45.0,34.0,65,30.16,10.0,Calm,Calm,-,N/A,,Partly Cloudy,0,2007-11-02 10:54:00
7:54 AM,44.1,34.0,68,30.18,10.0,Calm,Calm,-,N/A,,Clear,0,2007-11-02 11:54:00
8:54 AM,45.0,37.0,74,30.19,10.0,Calm,Calm,-,N/A,,Clear,0,2007-11-02 12:54:00
9:54 AM,50.0,37.0,61,30.20,10.0,South,3.5,-,N/A,,Clear,170,2007-11-02 13:54:00
10:54 AM,53.1,33.1,47,30.20,10.0,Variable,3.5,-,N/A,,Clear,0,2007-11-02 14:54:00
11:54 AM,55.0,34.0,45,30.18,10.0,SSW,4.6,-,N/A,,Clear,210,2007-11-02 15:54:00
12:54 PM,59.0,34.0,39,30.15,10.0,Calm,Calm,-,N/A,,Clear,0,2007-11-02 16:54:00
1:54 PM,60.1,35.1,39,30.11,10.0,Calm,Calm,-,N/A,,Clear,0,2007-11-02 17:54:00
2:54 PM,63.0,36.0,37,30.08,10.0,WNW,6.9,-,N/A,,Clear,300,2007-11-02 18:54:00
3:54 PM,64.9,36.0,34,30.06,10.0,NNE,9.2,-,N/A,,Clear,20,2007-11-02 19:54:00
4:54 PM,64.9,37.9,37,30.05,10.0,NNW,5.8,-,N/A,,Clear,340,2007-11-02 20:54:00
5:54 PM,57.9,37.0,46,30.07,10.0,South,8.1,-,N/A,,Clear,170,2007-11-02 21:54:00
6:54 PM,53.1,36.0,52,30.10,10.0,SW,4.6,-,N/A,,Clear,220,2007-11-02 22:54:00
7:54 PM,51.1,37.0,59,30.12,10.0,SW,3.5,-,N/A,,Clear,230,2007-11-02 23:54:00
8:54 PM,46.9,37.0,68,30.12,10.0,Calm,Calm,-,N/A,,Clear,0,2007-11-03 00:54:00
9:54 PM,45.0,37.9,76,30.12,10.0,South,3.5,-,N/A,,Clear,190,2007-11-03 01:54:00
10:54 PM,44.1,37.0,76,30.12,10.0,Calm,Calm,-,N/A,,Clear,0,2007-11-03 02:54:00
11:54 PM,41.0,36.0,82,30.11,10.0,Calm,Calm,-,N/A,,Clear,0,2007-11-03 03:54:00